GFSMA_925_rhum_240.txt.gz
RH
49 51 51 52 52 49 43 42 39 38 47 55 57 58 59 57 58 60 65 64 85 92 84 87 86 84 81 85 93 93 92 95 96 96 97 97 96 95 92 91 88 84 87
52 52 54 54 53 50 45 42 42 41 42 53 57 60 59 59 57 58 57 64 57 64 92 91 84 85 80 87 96 95 94 91 88 94 95 95 96 92 90 89 95 93 85
56 56 54 54 54 49 46 45 46 43 42 56 58 59 58 56 55 56 57 56 52 45 47 81 93 86 85 82 92 96 97 96 96 97 97 97 97 96 95 95 94 93 82
56 58 56 55 54 52 48 46 45 43 43 50 56 62 60 59 56 54 52 51 51 51 51 37 49 90 91 85 92 94 94 96 95 93 90 91 90 89 87 87 87 86 85
51 55 55 56 56 54 50 45 50 47 44 50 57 64 63 61 59 56 52 53 56 55 55 53 42 52 78 93 89 90 91 91 91 90 89 87 85 83 81 80 80 81 80
46 58 58 56 55 53 50 50 49 53 50 49 53 65 68 69 65 62 58 51 53 50 53 58 57 66 63 66 84 86 88 86 85 84 82 80 80 79 79 78 78 80 78
52 59 58 57 55 49 48 46 49 48 52 54 51 62 68 71 57 63 66 57 55 49 52 52 57 60 69 66 54 64 85 84 81 79 78 79 78 78 78 79 80 80 80
45 60 58 58 55 53 51 48 47 47 51 55 41 42 41 52 50 58 65 60 47 48 48 52 51 64 72 71 56 52 59 84 80 79 78 78 77 78 77 76 77 78 79
45 52 57 58 58 55 54 53 52 48 46 54 55 41 36 33 39 49 51 52 42 43 44 50 56 67 73 68 65 66 48 53 76 78 80 78 76 76 77 73 72 73 75
46 42 44 56 60 58 57 57 54 49 46 46 52 56 57 49 36 33 44 46 40 43 46 46 55 66 72 69 66 50 50 48 70 70 71 75 78 77 78 76 74 72 72
53 42 44 44 60 62 63 60 58 53 50 48 47 52 51 52 46 38 32 34 37 42 46 49 55 62 72 71 67 66 51 47 59 71 73 73 73 77 78 77 77 74 72
62 48 48 52 57 63 65 64 62 60 57 58 56 55 49 45 45 43 40 44 48 44 47 49 50 56 67 70 61 57 51 48 45 66 73 75 77 77 76 75 76 76 74
64 65 60 62 69 67 65 64 65 64 69 64 61 61 62 62 63 59 55 49 52 49 49 48 53 61 68 70 67 60 55 53 48 58 74 75 76 76 76 76 76 76 76
60 63 65 66 66 63 65 68 71 73 72 73 70 69 68 69 71 69 63 58 49 46 50 50 53 60 64 62 62 60 63 67 61 61 73 80 77 79 85 84 82 79 78
61 64 67 69 68 70 70 70 71 69 69 70 70 69 65 68 69 70 70 68 59 54 50 50 57 61 66 69 71 74 71 73 58 62 64 68 70 75 73 74 80 89 90
57 69 70 69 68 67 66 66 64 63 61 62 62 60 61 63 65 69 70 68 69 64 60 51 56 63 68 63 52 50 49 47 53 67 77 72 80 77 74 81 86 90 94
68 70 68 64 62 61 60 60 60 61 62 66 68 68 67 64 64 63 67 67 66 70 60 47 45 42 43 45 44 42 41 46 47 58 77 73 80 74 76 82 86 84 86
68 65 64 64 64 63 63 63 64 65 60 54 46 40 40 39 41 45 42 46 51 55 59 47 41 42 46 44 43 46 41 41 44 51 63 75 72 65 68 70 65 68 72
71 69 66 65 65 63 57 50 43 40 40 42 43 41 43 42 37 45 46 47 50 51 50 48 46 45 45 47 53 55 53 52 52 54 58 60 58 66 76 76 76 73 67
66 62 58 54 48 44 44 40 40 40 40 43 46 46 46 47 47 50 50 52 53 53 46 47 47 46 50 52 55 52 52 52 52 53 55 57 61 61 61 60 61 65 70
50 40 36 42 44 46 46 47 47 46 44 44 49 50 54 44 42 53 56 50 50 49 49 50 52 49 51 50 52 54 54 53 52 56 58 52 52 54 55 54 54 55 69
25 26 31 34 49 51 45 38 48 49 49 50 51 53 56 53 58 46 45 53 72 64 56 54 55 54 52 52 54 55 62 68 64 54 54 54 53 56 57 54 53 67 78
31 33 34 34 51 60 49 49 40 55 56 57 58 58 57 54 64 66 68 72 70 74 82 74 63 58 56 56 61 65 67 68 64 59 60 63 54 55 53 52 58 68 76
34 32 32 32 43 58 53 73 52 61 60 63 65 65 64 64 68 78 74 68 68 66 67 68 66 66 65 66 73 74 74 69 64 55 52 62 58 59 57 59 61 67 71
44 46 40 46 53 59 56 75 69 67 65 63 67 70 75 72 74 83 74 68 66 66 67 75 84 90 93 91 91 83 67 63 63 57 60 65 64 70 70 71 58 61 68
50 50 55 57 50 60 62 70 72 68 64 64 68 75 79 77 82 82 78 73 69 66 66 67 70 69 67 62 71 74 75 74 74 80 67 78 81 76 76 65 62 67 65

GFSMA_925_rhum_243.txt.gz
RH
42 43 45 45 45 41 38 38 34 38 44 47 49 51 50 49 51 56 59 62 80 91 88 81 84 79 85 96 94 91 92 91 96 95 94 94 93 90 85 96 96 96 96
44 46 47 46 47 42 40 38 37 36 46 47 49 50 50 51 50 51 54 53 48 56 88 87 79 82 84 93 97 96 95 96 95 95 97 97 96 92 95 95 92 91 86
49 50 46 47 46 41 41 41 41 37 45 49 50 50 48 48 48 49 49 46 47 44 35 78 90 83 79 92 95 96 97 98 96 93 93 93 92 90 88 88 88 87 86
52 52 50 48 46 45 42 41 40 39 43 48 51 53 52 51 48 46 48 49 52 51 53 38 62 94 88 85 90 92 93 95 93 90 88 88 86 84 83 82 82 82 81
53 51 50 52 48 46 45 41 47 41 43 50 54 56 55 54 52 49 49 48 51 55 54 56 52 56 85 90 86 86 85 86 85 85 83 82 81 80 80 80 80 80 80
53 51 51 50 48 48 46 46 47 47 44 45 51 58 62 62 58 56 53 46 51 49 52 56 57 64 59 59 85 86 83 82 80 80 80 80 80 79 79 79 80 80 80
54 55 53 52 47 43 41 41 46 48 50 48 56 63 65 64 51 58 59 51 44 49 52 48 57 60 70 65 56 81 89 84 81 80 80 79 78 77 78 76 76 76 78
57 55 55 53 48 46 45 43 44 44 50 51 40 43 55 56 49 55 58 47 40 45 44 48 50 66 68 66 65 48 52 74 72 73 76 78 78 77 77 77 76 75 75
58 54 54 53 50 48 49 48 46 42 46 50 50 46 43 43 38 48 48 45 37 42 44 46 58 68 66 67 60 48 44 47 73 73 75 76 76 77 78 78 78 78 77
58 58 57 55 56 52 53 52 48 46 44 48 49 51 48 44 40 47 43 45 37 40 44 45 56 66 67 69 67 51 49 46 68 73 75 76 78 79 79 78 78 78 79
60 62 61 59 58 56 56 48 49 45 45 45 45 48 46 44 39 37 40 37 37 41 44 46 53 60 70 67 68 60 53 48 56 72 75 77 79 80 80 79 79 79 79
63 63 65 64 63 62 60 58 55 53 51 52 51 48 46 43 45 42 42 44 48 43 47 47 49 54 64 68 66 66 52 54 54 72 79 83 86 87 87 86 86 85 84
64 65 64 66 66 65 64 60 61 60 62 59 56 58 57 60 58 56 52 49 50 48 48 47 52 62 63 64 63 62 62 64 66 71 83 83 82 80 77 75 73 75 80
63 60 65 65 67 69 68 68 68 70 67 69 66 64 64 66 65 63 60 58 56 45 44 50 52 58 62 67 68 70 65 64 66 49 72 73 74 76 75 69 70 75 78
61 61 64 64 68 70 69 70 72 68 70 70 69 66 63 65 65 66 65 63 60 61 57 50 55 57 63 64 56 48 42 44 32 57 66 78 79 74 74 69 75 80 80
61 66 66 67 68 67 67 66 64 63 64 64 62 60 60 61 65 68 69 66 66 65 65 47 46 46 42 42 40 41 40 40 39 47 60 70 72 78 77 70 69 68 65
64 67 66 65 64 63 62 60 59 58 59 62 64 66 64 62 60 53 53 53 53 55 56 45 38 37 38 42 42 42 45 41 39 43 56 62 65 66 66 68 72 76 77
65 66 65 61 59 58 57 58 58 61 62 58 50 41 37 35 37 41 38 41 45 46 48 53 46 43 42 43 45 51 54 50 49 49 55 57 58 63 65 70 75 66 68
65 63 62 61 61 62 62 59 54 46 39 38 37 37 39 37 35 44 46 44 46 46 47 45 46 44 44 45 51 52 50 50 51 48 49 54 58 60 60 60 60 60 60
70 70 68 64 58 51 44 38 36 36 37 42 42 40 43 43 44 46 46 45 47 50 47 46 46 48 48 48 49 51 53 53 53 54 56 54 56 51 52 54 56 54 56
65 60 54 50 45 42 40 38 40 39 40 44 44 45 53 34 33 41 52 51 52 50 51 49 48 47 50 50 52 53 56 59 62 62 59 58 55 54 56 54 54 54 55
57 53 44 43 44 53 45 45 45 43 43 43 46 49 52 53 59 54 51 50 68 71 66 62 62 59 54 53 54 58 64 72 73 62 63 61 59 61 58 56 54 57 60
36 39 43 43 51 57 44 29 40 48 51 52 53 54 53 48 61 65 65 67 67 67 71 76 75 65 60 60 63 70 74 75 73 67 63 59 58 60 58 61 62 64 65
36 35 40 54 56 57 58 37 41 56 56 60 61 61 61 62 66 73 77 70 67 65 64 67 71 73 73 73 80 85 82 79 71 64 59 64 63 65 66 67 65 63 60
40 43 45 49 47 53 57 48 60 62 62 60 63 66 72 69 69 81 80 71 68 67 64 62 66 77 84 82 77 74 76 74 74 71 70 73 72 77 78 76 65 63 61
39 45 48 52 57 58 78 60 64 62 60 60 64 70 73 74 79 81 81 76 74 67 70 71 68 66 63 58 62 66 71 78 81 77 72 82 87 87 81 74 67 66 67

GFSMA_925_rhum_249.txt.gz
RH
48 49 45 43 40 38 36 45 48 48 50 50 51 56 57 51 46 56 70 68 79 82 76 78 90 96 96 96 97 95 96 96 94 93 93 93 91 86 84 84 85 86 85
44 44 46 43 39 38 36 37 48 51 52 50 50 51 54 55 56 45 40 36 43 82 83 80 85 96 95 96 95 94 93 91 87 88 86 86 84 83 82 82 81 81 80
44 45 45 45 39 38 38 37 45 51 51 51 50 49 51 51 49 47 52 54 47 50 90 87 89 90 91 91 90 90 90 88 83 79 81 81 81 81 81 81 82 81 82
45 46 46 43 38 36 38 37 42 52 52 51 51 50 47 48 48 49 51 53 55 49 51 84 92 89 81 78 75 78 80 76 78 81 81 80 79 77 77 79 80 79 80
47 48 46 43 41 41 41 39 45 51 54 54 53 52 49 49 50 46 46 51 54 57 60 58 51 81 87 81 77 76 78 83 80 82 81 80 80 79 79 79 80 79 79
47 49 48 44 41 42 41 42 42 51 56 57 57 57 57 54 52 47 50 47 52 53 62 68 68 57 83 92 86 81 79 79 80 81 81 81 80 77 83 82 81 81 81
49 50 48 44 43 41 40 43 42 51 53 60 64 66 60 57 59 57 49 43 46 50 54 69 73 64 51 71 88 85 81 80 80 81 81 82 82 82 80 81 79 78 78
50 51 47 46 42 41 44 43 45 47 58 65 67 71 83 59 61 60 46 44 44 45 48 70 75 69 56 42 43 46 76 80 80 80 81 82 83 83 83 85 85 87 86
48 49 46 45 46 42 43 46 44 45 51 55 57 57 85 84 62 60 42 43 45 46 48 69 70 67 61 45 48 50 49 82 84 85 84 83 89 92 91 86 83 81 82
48 49 46 45 46 42 40 42 44 38 44 50 50 49 46 49 70 68 51 42 44 45 52 65 70 70 67 63 62 59 55 84 90 88 84 82 81 80 78 73 71 72 73
49 50 48 47 45 42 41 43 45 45 36 42 39 44 42 41 44 60 69 50 46 46 49 59 66 70 71 69 66 63 61 80 75 65 63 71 78 78 72 72 71 70 74
51 52 52 49 47 47 42 42 43 44 45 42 42 42 41 44 49 50 66 59 52 49 50 57 66 71 72 70 66 61 46 44 58 57 64 72 83 78 76 74 73 72 71
55 55 54 52 50 46 42 40 44 45 46 46 46 48 47 47 47 49 50 62 60 53 54 61 68 70 67 66 62 53 38 32 47 53 58 67 76 74 74 75 74 75 75
51 50 52 51 50 50 44 45 45 46 47 48 50 51 50 53 49 50 54 55 72 64 59 64 68 66 62 56 49 43 35 34 33 50 54 60 70 69 73 75 74 75 76
58 51 53 54 52 51 48 48 48 51 55 56 57 56 52 56 52 52 52 52 56 78 77 63 54 40 39 40 41 40 37 39 47 60 60 68 65 68 69 71 73 72 70
66 57 56 58 60 57 54 54 56 57 56 59 59 57 54 55 55 58 59 60 60 65 81 52 43 44 42 40 40 39 43 44 51 54 58 62 62 66 66 68 66 64 66
67 64 60 61 62 62 63 60 63 65 59 60 60 55 58 61 62 61 53 48 49 48 61 56 48 42 40 43 44 45 48 48 48 48 60 60 62 65 67 65 63 63 66
69 68 63 65 66 65 65 63 66 64 57 58 59 60 63 57 39 29 28 31 36 41 42 48 46 43 44 46 48 48 50 51 51 56 62 61 65 66 65 62 65 66 64
74 73 73 69 70 68 67 64 62 57 58 60 58 47 33 28 31 33 35 39 43 47 48 49 49 48 48 47 51 52 54 54 55 58 54 64 68 69 60 64 66 66 64
82 78 75 72 69 67 62 60 60 62 56 45 34 27 30 31 36 39 42 44 47 49 49 50 52 53 56 58 56 57 59 62 61 59 51 62 60 54 65 66 68 65 70
88 83 76 68 63 60 59 60 59 55 47 36 33 28 30 33 34 36 37 42 44 42 48 56 64 68 66 64 65 71 72 73 65 64 71 55 52 52 61 61 53 67 70
84 89 84 70 61 63 65 69 63 43 30 28 31 35 28 26 31 32 37 44 46 55 66 69 71 73 71 72 72 74 76 84 91 73 73 60 65 63 59 52 67 73 76
100 91 86 89 94 92 87 78 53 38 32 34 39 41 44 47 46 52 61 68 69 73 71 70 70 69 71 66 74 83 86 84 86 72 69 78 68 70 63 70 70 81 82
96 100 99 96 94 88 73 51 39 34 38 43 44 48 47 57 61 57 50 62 68 68 68 69 70 72 75 77 78 76 68 67 66 68 78 84 77 76 80 78 65 79 82
99 100 97 91 77 67 50 40 34 40 44 48 49 50 55 64 79 68 65 73 75 71 71 69 70 70 67 72 71 68 66 72 85 87 79 91 84 88 83 76 66 75 76
95 91 92 78 68 64 48 37 34 42 53 57 57 61 58 66 72 77 78 79 80 73 77 83 75 62 68 72 70 70 84 96 100 84 83 93 93 94 81 72 76 74 79

GFSMA_925_rhum_255.txt.gz
RH
34 36 35 36 43 50 48 47 47 56 64 62 64 76 78 77 77 77 78 78 78 92 98 95 95 96 97 93 92 92 88 87 87 84 82 80 81 80 81 81 82 83 82
39 38 37 37 40 51 50 48 50 58 62 57 50 64 67 68 71 69 78 82 82 82 98 97 96 93 93 92 91 87 85 82 80 80 79 79 78 78 78 79 78 80 78
45 39 38 36 40 50 53 53 55 59 60 55 51 46 40 39 36 36 59 83 82 88 92 98 96 93 92 88 84 82 79 78 80 78 78 82 81 81 81 82 82 82 87
47 42 39 36 36 48 51 54 54 55 56 55 56 53 47 49 51 48 46 72 75 89 85 80 80 76 72 82 86 83 86 81 80 78 82 88 88 85 80 78 82 85 86
47 44 41 38 36 40 52 54 54 52 54 56 56 52 50 49 51 53 52 50 54 61 90 85 82 81 79 84 75 76 80 82 84 82 84 78 84 88 91 93 94 96 93
46 45 43 39 38 38 48 54 54 53 53 52 52 53 50 50 49 52 54 59 62 58 79 88 85 82 82 84 84 81 77 78 76 82 83 86 89 94 93 85 83 85 85
46 47 43 38 38 38 47 55 54 54 56 52 57 62 57 54 52 51 53 55 65 69 58 60 78 80 83 89 91 86 82 79 85 92 92 90 85 83 81 76 78 78 78
47 46 43 38 36 38 39 55 56 61 60 55 64 65 77 72 60 52 53 53 57 72 70 63 50 51 50 50 72 91 93 87 82 78 80 84 82 79 78 78 77 77 77
49 47 46 40 37 39 39 51 56 58 70 62 58 61 86 80 74 56 53 51 53 69 78 70 56 46 47 50 52 60 70 74 69 73 78 80 83 81 80 77 76 76 76
50 50 47 43 38 40 41 43 54 57 60 66 62 60 56 62 83 80 55 55 55 65 79 74 64 56 60 61 61 56 50 62 65 69 76 81 82 78 79 78 77 76 76
53 51 50 47 41 40 39 41 53 59 57 63 68 65 54 61 58 69 76 61 59 76 83 76 69 70 68 67 60 53 49 49 58 60 66 79 80 78 77 79 77 76 75
53 53 51 49 43 39 38 39 43 55 59 59 60 58 48 53 56 60 72 65 62 74 83 78 76 72 69 65 57 50 45 37 51 57 65 74 77 77 76 78 78 76 76
57 54 54 52 48 42 38 39 42 47 52 59 60 56 54 44 43 48 51 65 71 77 86 90 80 74 67 59 52 45 37 28 38 65 66 74 72 74 77 76 76 75 75
55 54 53 53 51 46 44 42 43 44 45 48 54 55 46 44 39 42 49 56 80 77 80 84 84 76 58 50 44 39 30 26 33 62 65 70 70 71 76 75 75 75 73
56 56 53 55 53 50 46 45 44 45 44 44 39 48 42 42 40 44 43 50 59 87 86 76 57 54 47 42 40 34 31 34 37 61 71 72 71 72 74 76 75 72 73
63 60 56 55 56 54 50 46 47 48 48 48 45 46 47 47 49 48 48 51 51 59 88 66 48 49 47 44 38 36 38 43 43 60 70 72 70 74 74 77 70 71 74
68 66 63 58 61 60 58 56 54 54 55 55 56 52 51 50 50 52 52 52 52 56 69 57 48 46 44 42 44 47 49 51 51 60 72 70 73 74 79 69 72 74 75
76 75 74 75 78 77 72 70 68 64 60 61 61 58 56 56 54 55 54 50 44 43 54 56 49 47 45 48 48 50 53 55 55 56 72 70 78 77 64 72 75 76 77
86 84 85 83 88 88 89 85 78 66 66 63 62 62 62 57 50 37 26 24 24 24 27 42 50 48 51 50 55 55 56 54 54 53 46 55 51 48 70 72 76 74 74
92 92 96 98 97 96 94 90 86 78 72 66 62 60 53 41 30 30 27 27 31 31 33 35 44 52 54 60 56 56 58 56 52 51 53 55 44 38 41 51 59 45 75
98 99 100 100 94 93 94 86 83 87 75 71 60 54 38 26 25 30 34 36 37 38 42 45 58 67 61 62 66 68 70 75 64 59 58 51 44 39 48 51 46 50 84
100 99 100 100 100 99 91 81 85 86 90 82 77 55 44 46 56 45 37 38 39 39 39 48 60 63 68 69 66 75 82 88 87 73 70 53 57 45 57 53 54 82 92
100 100 100 100 100 99 97 91 91 85 84 75 63 58 70 68 65 52 35 30 43 62 57 54 62 67 71 73 79 79 79 80 75 67 75 81 61 66 64 52 49 84 88
99 99 100 100 100 100 98 97 92 82 84 74 71 77 79 70 48 37 47 80 84 76 67 66 69 75 80 83 82 78 75 74 71 62 78 88 78 79 79 55 58 64 89
100 100 100 100 100 100 100 94 93 88 80 92 91 91 72 54 51 54 69 72 74 87 85 77 77 75 70 78 76 75 75 88 89 82 84 94 85 86 78 61 66 70 78
100 100 100 100 100 100 100 94 90 95 98 95 97 87 58 54 85 54 58 66 73 76 78 80 75 66 69 78 78 78 82 83 87 88 89 87 83 83 91 80 82 77 67

GFSMA_925_rhum_258.txt.gz
RH
34 36 50 54 50 50 48 52 67 66 68 77 83 80 78 76 77 78 74 80 98 96 91 86 95 95 93 92 90 87 85 82 81 82 82 82 81 82 81 79 76 78 76
29 36 44 46 49 49 47 47 61 66 67 72 80 78 78 77 76 77 78 76 90 100 96 96 96 92 91 88 88 84 79 79 78 73 77 77 76 80 82 83 86 86 88
34 34 36 39 50 51 48 51 65 65 60 65 72 71 69 71 67 74 81 83 82 92 100 96 95 88 82 84 84 83 87 82 83 91 94 89 83 79 82 85 86 89 82
39 38 36 37 51 52 50 53 65 61 53 46 44 42 41 39 39 55 73 74 84 82 84 83 76 77 84 89 89 84 82 77 84 80 82 86 78 85 93 94 95 94 92
48 41 38 38 51 54 54 57 64 58 55 55 50 51 53 52 49 48 57 60 85 85 81 80 78 81 80 80 79 80 86 85 86 86 84 87 94 91 86 82 84 85 84
51 46 40 37 46 52 55 56 59 58 57 58 53 55 53 54 54 54 53 52 67 91 87 83 77 74 78 80 84 80 78 88 86 81 78 86 83 81 79 80 79 79 79
50 49 43 39 38 50 56 56 56 57 62 55 56 60 59 55 55 57 61 63 62 78 90 86 80 82 84 89 93 86 86 91 88 86 89 88 83 80 79 78 78 78 79
49 49 45 40 39 41 56 57 54 61 61 54 60 66 84 72 58 58 58 66 69 63 61 76 82 81 77 71 86 90 86 77 78 81 82 83 83 81 80 78 77 77 77
50 49 48 43 40 40 51 58 56 56 65 57 54 60 85 88 72 60 59 59 72 74 66 55 48 45 48 52 56 57 56 71 74 78 80 82 81 80 78 78 76 76 76
53 50 49 46 39 40 44 58 57 56 57 66 61 66 57 66 86 77 61 60 66 82 73 62 51 53 57 58 56 50 48 64 67 67 78 80 81 78 78 77 76 76 75
51 51 50 48 44 40 40 46 59 58 57 60 65 64 62 66 64 67 77 68 70 90 81 69 61 64 66 63 56 53 50 50 60 62 69 80 78 79 79 78 77 76 77
53 52 52 51 49 42 41 42 51 60 61 58 60 57 51 57 59 61 74 73 73 92 95 75 72 72 68 60 56 52 46 37 56 67 71 78 76 78 79 79 78 78 78
55 54 55 56 52 48 43 43 44 52 62 62 59 60 54 49 46 50 52 70 78 90 94 86 79 73 63 57 52 47 38 33 48 65 71 75 74 75 79 78 78 78 78
50 47 50 53 53 52 48 44 44 46 56 62 62 62 62 56 48 44 46 60 83 83 90 97 83 74 61 52 46 39 32 30 30 62 73 76 74 74 78 78 79 77 75
55 52 50 52 53 54 52 48 45 45 48 54 58 64 62 56 52 45 44 44 57 92 93 87 83 76 54 47 43 38 31 34 49 68 74 76 73 76 78 80 77 74 76
77 68 58 56 54 55 55 52 50 48 50 52 52 51 55 56 49 47 49 46 49 60 93 74 54 61 48 46 43 40 38 39 45 72 75 74 76 77 80 82 73 76 78
74 79 80 76 66 65 62 57 55 53 53 55 55 52 56 54 54 55 56 56 53 53 70 63 52 53 49 46 44 44 46 51 52 51 75 74 79 83 71 72 75 78 79
82 77 77 82 85 85 78 64 60 57 55 59 59 61 60 61 61 62 62 57 55 54 52 57 52 49 46 47 48 48 53 57 54 54 61 75 70 64 69 72 73 77 75
90 88 82 81 79 76 72 69 63 67 70 71 67 64 60 60 56 52 48 42 36 48 52 52 52 52 52 51 52 53 56 53 51 46 43 47 43 50 56 45 69 77 71
95 91 89 90 86 80 77 77 81 82 81 83 83 80 68 57 49 36 25 21 21 23 31 49 50 52 52 56 54 50 48 49 47 42 47 50 42 39 37 46 45 42 74
98 95 94 94 94 91 85 83 86 86 91 91 88 82 75 66 49 34 26 37 53 57 40 40 51 56 58 58 54 60 61 63 51 57 52 45 36 40 48 52 47 62 88
100 100 100 99 100 99 93 91 94 95 91 90 88 85 85 76 54 46 64 67 41 29 38 47 56 56 59 62 64 71 76 79 80 73 66 46 52 47 51 44 46 87 94
99 100 100 100 100 100 100 100 98 96 92 88 86 82 62 56 67 67 50 39 35 33 33 29 42 58 70 68 76 78 79 77 73 65 77 72 56 58 47 42 45 87 92
100 99 100 100 100 100 100 100 100 95 93 89 79 65 60 73 76 71 60 51 63 61 55 55 60 68 74 78 76 75 73 71 63 58 77 89 76 77 55 46 49 52 72
100 99 100 100 100 100 100 100 99 96 96 91 83 70 75 84 88 80 63 64 82 76 73 72 75 77 88 76 69 67 69 74 82 72 84 90 75 82 70 58 61 63 73
100 100 100 100 100 100 100 100 97 97 99 94 85 93 95 93 98 92 52 72 84 93 81 78 72 68 70 70 64 62 65 74 84 82 84 89 84 90 94 80 77 75 66

GFSMA_925_rhum_261.txt.gz
RH
52 56 70 72 70 56 62 73 75 84 82 79 79 80 75 73 74 79 94 94 94 90 86 92 97 92 90 90 86 83 82 81 83 81 78 85 87 88 86 85 86 89 88
39 46 61 64 62 51 58 71 69 78 85 85 82 78 77 75 76 73 77 97 93 95 90 96 91 89 88 85 83 83 77 73 84 91 91 83 88 82 85 85 85 90 92
34 38 52 50 50 50 56 70 69 73 83 84 81 79 78 75 73 77 79 92 99 99 98 95 90 89 86 86 87 89 92 94 90 86 83 87 91 93 96 95 93 91 86
31 39 46 48 52 51 53 68 69 72 77 79 75 73 73 70 70 72 82 83 91 93 92 81 84 86 90 88 87 86 89 87 88 84 95 95 90 86 86 86 87 85 82
35 35 38 44 52 52 54 64 68 60 66 55 48 48 46 49 62 71 71 84 84 81 77 75 78 76 83 88 91 89 87 87 90 94 90 87 85 84 82 80 81 81 80
40 40 38 39 52 54 58 67 63 54 48 51 59 59 58 56 54 54 52 82 86 82 81 81 78 72 84 91 88 90 89 92 93 90 90 86 81 81 80 79 80 80 79
50 46 40 40 52 55 58 66 61 55 60 55 55 67 63 62 63 67 63 79 92 84 82 79 75 78 77 86 97 95 89 83 90 90 88 84 83 81 80 79 78 78 78
52 52 44 39 50 57 60 66 62 71 69 54 60 67 62 66 62 65 72 70 80 92 88 85 83 82 82 81 85 79 77 80 81 82 84 84 82 81 79 78 78 78 78
52 54 49 41 39 52 59 62 62 62 69 57 54 63 69 63 64 63 65 77 72 67 80 85 84 78 63 59 61 53 65 77 78 80 83 83 80 79 78 77 77 77 77
54 53 52 46 40 41 57 59 58 55 56 64 64 62 55 66 63 63 66 66 84 73 62 53 50 51 53 53 51 49 53 67 67 76 81 83 80 79 79 79 78 78 78
52 52 51 50 44 41 41 57 58 56 54 58 62 66 66 67 60 59 62 69 84 90 71 57 56 58 61 58 54 53 51 56 63 69 78 80 80 80 81 80 78 79 79
51 53 53 51 49 43 41 45 58 58 56 55 61 55 55 63 66 60 64 70 70 99 86 68 66 69 67 60 57 53 48 42 67 69 77 78 76 78 81 80 79 79 79
54 53 55 54 52 47 42 41 51 59 59 58 54 56 52 49 48 51 60 70 74 98 99 80 74 75 66 61 56 51 46 35 36 63 75 78 77 76 80 80 81 80 78
46 48 52 53 52 51 49 44 44 50 61 62 60 59 57 55 49 45 45 64 74 84 97 97 84 74 63 57 53 44 38 32 37 76 79 78 73 77 80 80 82 78 78
60 52 50 52 55 54 52 48 45 47 51 61 64 64 64 63 56 50 45 42 60 75 82 97 87 78 60 53 47 41 36 39 48 72 78 72 76 78 78 85 77 77 78
84 79 65 55 53 58 56 53 51 48 48 50 56 66 68 67 66 60 52 48 45 57 78 82 77 82 61 50 45 42 39 38 40 65 69 66 76 80 82 73 76 77 79
94 94 95 85 68 62 60 58 55 52 51 52 55 60 60 61 63 60 56 54 53 50 70 72 64 72 55 48 47 45 44 43 44 45 50 66 72 62 71 74 74 76 80
98 97 96 98 93 81 82 68 61 58 55 56 56 57 55 54 56 56 56 57 59 54 53 63 61 59 53 52 48 48 46 50 46 50 47 56 60 61 56 70 76 79 82
90 88 90 86 86 91 91 88 84 84 77 68 58 57 56 57 58 61 62 62 59 55 51 53 64 56 52 51 52 52 54 54 51 43 40 48 42 38 38 44 73 74 47
95 91 89 87 86 86 90 95 96 90 77 64 64 64 68 62 60 61 61 58 56 58 54 54 59 58 55 56 54 54 60 50 46 41 43 46 41 36 35 39 40 39 56
100 98 96 92 90 87 86 88 88 74 70 79 82 80 79 74 67 60 44 30 28 34 46 50 59 63 61 62 64 54 53 54 46 43 50 43 34 36 41 38 38 63 93
99 100 98 95 96 94 93 92 81 78 84 92 94 91 83 78 69 50 33 39 51 54 54 53 54 58 57 54 53 53 57 70 62 58 54 65 42 41 38 37 45 77 96
99 98 100 99 98 99 98 95 88 92 100 96 92 83 82 65 54 52 65 69 56 43 37 28 30 43 53 52 54 66 67 73 76 72 63 66 53 44 39 39 45 52 89
99 98 100 100 100 100 100 100 100 100 100 99 92 85 72 68 66 67 70 48 39 31 29 31 34 47 55 63 65 65 66 64 64 70 75 74 81 70 39 40 48 49 64
100 100 100 100 100 100 100 100 100 100 100 99 94 88 82 70 74 74 59 58 60 61 63 58 63 68 70 68 65 61 66 74 70 78 91 81 74 81 69 49 52 53 57
100 100 100 100 100 100 100 100 100 100 100 100 95 91 79 70 84 80 72 70 94 98 87 87 94 94 75 64 57 54 57 78 80 75 97 88 87 93 81 69 55 77 79

GFSMA_925_rhum_267.txt.gz
RH
63 57 56 67 67 67 71 69 67 68 64 59 56 60 73 90 91 86 91 94 88 90 97 93 90 87 84 81 82 82 82 84 91 92 90 86 87 89 92 92 88 87 81
61 60 60 66 64 70 68 69 69 69 67 63 62 65 72 82 92 88 91 91 88 88 96 91 86 86 83 77 78 87 92 89 87 88 93 97 94 91 90 89 84 83 84
59 63 62 65 66 70 67 69 72 72 68 68 66 64 69 74 88 96 92 93 92 95 93 90 89 87 81 84 94 93 89 89 94 95 92 92 91 89 86 84 84 83 82
59 63 61 65 62 70 71 74 76 74 74 72 69 66 70 71 79 100 98 97 98 99 91 87 88 89 88 88 90 87 88 95 94 92 91 88 84 84 84 84 84 82 82
58 60 60 61 59 72 73 73 75 75 74 70 68 68 69 75 80 90 100 99 93 89 87 89 86 86 85 86 87 82 91 93 91 91 86 85 83 82 82 81 81 81 81
54 54 54 55 58 68 72 73 74 73 72 68 62 63 69 72 73 87 91 92 87 87 87 76 76 84 90 86 77 92 92 94 94 89 87 85 83 82 81 80 80 80 80
50 50 51 53 55 62 68 69 71 72 68 58 62 63 64 65 68 78 90 88 88 84 81 82 81 91 87 87 93 94 92 93 91 89 88 83 82 80 79 79 79 79 80
47 47 48 52 55 56 62 64 66 64 60 60 55 53 60 57 61 62 76 88 87 85 83 80 78 81 86 88 88 85 87 83 86 87 85 81 80 79 78 78 78 79 79
47 45 46 50 56 58 62 65 64 61 62 57 50 44 54 51 55 61 65 75 84 86 84 81 78 78 81 81 80 77 81 86 84 86 86 81 80 79 79 79 78 80 81
50 50 49 49 56 59 64 66 65 61 60 59 52 54 56 46 51 58 62 65 73 80 80 79 81 84 80 76 70 69 74 73 83 84 85 81 80 80 81 79 79 80 81
57 59 56 51 54 62 66 69 67 64 62 60 59 61 60 53 42 44 58 61 69 65 77 78 80 77 68 67 61 56 61 54 72 79 84 81 79 80 80 80 79 82 82
64 66 62 54 52 62 66 71 69 67 61 59 57 58 57 56 50 44 49 56 66 70 65 62 67 69 67 67 64 52 51 56 73 78 83 80 76 78 80 81 83 83 82
67 70 66 63 57 56 63 69 70 69 64 59 57 54 55 53 49 46 45 53 53 70 75 69 67 69 68 68 60 55 51 52 53 75 82 82 58 75 79 79 84 80 79
62 66 66 64 62 59 58 66 69 69 68 63 60 58 57 54 55 49 52 56 61 67 76 74 72 73 69 68 63 56 53 49 41 74 70 39 42 66 75 81 85 75 76
57 66 68 66 64 62 59 60 67 72 71 71 68 63 61 57 59 55 51 49 56 68 74 74 80 77 72 68 62 56 60 47 50 56 42 36 39 47 68 62 75 76 74
53 59 66 66 63 62 61 60 63 69 70 72 73 71 68 65 62 58 54 49 50 49 62 64 77 81 71 66 62 57 58 62 55 54 50 42 41 47 49 44 56 58 77
62 64 67 66 64 63 62 62 63 64 66 68 72 74 71 71 67 64 61 56 53 50 57 73 78 80 75 64 62 57 61 52 50 54 52 41 44 42 42 31 30 73 81
79 72 68 68 67 66 64 63 63 63 62 64 69 75 74 75 73 73 70 66 60 62 58 66 74 75 74 66 61 58 58 54 57 60 46 41 40 40 32 28 50 65 81
100 97 98 98 93 79 74 69 68 67 65 63 62 67 68 74 77 77 77 75 74 74 65 61 65 71 72 65 63 62 61 55 61 60 45 36 37 35 31 43 40 50 40
97 96 93 90 99 100 99 90 76 73 71 68 66 65 67 68 75 74 77 81 86 79 64 59 61 70 70 68 66 64 67 67 66 57 52 52 62 49 42 39 36 35 36
100 97 98 98 99 100 100 100 100 100 92 86 87 81 80 86 83 74 85 90 78 72 66 66 69 72 70 69 68 70 71 66 63 64 63 59 50 58 52 59 60 60 40
100 100 100 100 99 98 94 94 99 100 100 100 99 98 99 96 91 97 92 71 64 69 67 69 69 70 72 69 75 69 62 61 60 64 60 64 58 54 56 57 57 65 47
100 100 100 100 99 98 98 94 97 100 100 100 100 100 100 99 100 90 78 71 67 66 60 60 63 67 68 66 66 63 58 58 53 70 51 54 57 57 55 53 62 59 56
100 100 100 98 100 100 98 96 99 100 100 100 100 99 99 98 92 78 76 68 68 66 65 60 61 58 56 59 58 62 63 62 64 61 50 56 57 57 52 51 62 60 49
96 96 99 100 100 100 98 98 100 100 100 100 100 100 98 88 82 76 74 72 61 57 51 51 51 54 57 62 55 61 66 58 54 65 68 64 60 65 52 56 60 62 70
100 99 99 99 99 99 100 100 100 100 100 99 100 98 94 84 89 86 69 59 65 61 48 54 54 49 51 60 59 58 55 57 54 58 74 64 76 74 78 63 64 58 56

GFSMA_925_rhum_270.txt.gz
RH
68 73 73 85 79 84 83 72 71 65 60 56 67 68 69 82 90 84 88 89 82 91 96 91 89 85 83 83 84 79 88 91 91 89 90 94 95 92 89 82 79 83 78
64 65 64 76 71 76 73 71 69 66 60 57 70 70 80 85 84 94 96 90 86 94 92 89 84 82 80 81 86 91 89 88 91 96 93 92 87 82 81 83 83 84 83
63 60 59 67 66 69 68 70 70 67 64 63 67 70 77 86 85 88 89 90 94 95 92 91 84 79 78 92 90 90 88 98 95 93 90 87 87 85 84 85 83 82 82
63 61 62 67 65 69 67 70 71 69 69 66 65 68 79 80 95 89 87 93 99 95 87 86 84 88 94 90 88 89 94 95 94 86 88 86 85 85 84 83 82 81 82
61 62 63 66 66 70 70 74 74 72 73 70 68 73 80 81 90 100 99 98 99 90 85 86 88 86 89 90 84 90 93 94 91 89 87 86 84 83 83 82 82 81 81
61 63 63 66 61 72 74 78 77 75 72 69 69 70 72 82 84 100 100 99 90 87 88 86 80 80 87 87 78 91 93 94 91 90 87 84 84 82 82 82 82 82 82
60 62 62 63 60 74 75 75 76 76 68 65 66 68 69 70 84 91 99 96 96 92 80 75 79 87 83 82 94 95 94 91 91 90 85 84 82 81 81 82 82 82 81
58 57 57 59 59 73 75 76 75 72 64 61 64 61 78 63 64 77 92 94 91 84 87 83 82 80 81 89 94 93 92 88 88 88 84 82 81 80 81 81 82 82 83
54 54 54 55 58 68 72 72 73 70 66 59 54 49 74 76 64 65 74 90 89 86 85 85 86 82 77 88 88 88 83 87 89 88 84 82 80 81 81 79 82 83 82
50 50 51 54 56 60 67 68 70 65 63 60 48 54 48 50 71 75 65 72 84 82 82 82 79 81 78 80 83 81 79 82 86 87 85 82 81 81 80 79 82 82 83
47 47 48 52 57 58 64 66 66 62 60 54 56 53 53 46 45 60 81 69 72 80 78 81 80 70 80 79 73 71 76 72 84 85 85 83 78 78 79 80 81 85 83
49 48 48 48 54 59 63 67 65 62 59 52 52 50 52 52 49 48 67 74 74 68 80 80 76 74 75 72 68 62 63 57 74 84 86 83 70 75 78 80 85 84 83
57 52 52 50 50 58 64 68 66 63 61 56 51 53 48 49 45 46 53 65 75 71 67 65 70 74 72 69 65 54 53 52 57 81 86 84 49 50 55 78 85 81 79
60 60 57 56 50 55 63 66 67 66 64 61 56 55 54 49 51 46 50 54 80 78 78 73 65 67 70 65 62 57 52 52 54 80 90 65 36 36 43 68 79 76 76
73 74 67 62 54 52 58 67 71 70 67 64 60 57 56 55 53 48 45 48 61 87 90 77 74 69 72 68 67 60 56 54 50 65 60 45 35 29 32 36 49 67 74
76 74 74 68 63 58 56 63 69 69 71 68 65 61 59 57 55 54 48 45 45 51 81 73 76 71 74 71 69 64 60 57 53 56 50 43 35 30 32 33 31 46 58
93 82 69 68 66 64 61 59 64 68 71 70 70 66 64 62 59 60 54 51 48 52 69 71 74 75 76 72 67 61 60 60 59 57 51 48 37 30 34 34 32 24 34
86 74 68 68 66 65 63 61 61 63 69 72 71 73 69 68 67 63 61 57 54 54 55 76 80 80 78 71 67 61 59 60 58 55 55 49 38 33 36 33 26 24 32
92 84 74 69 66 65 64 63 62 64 65 67 69 71 71 72 72 70 67 65 64 62 60 63 75 80 82 72 62 60 58 57 56 58 57 50 42 60 44 34 26 28 32
94 99 96 91 89 79 73 66 64 64 64 64 64 66 68 72 74 74 76 75 73 70 76 80 77 80 74 70 63 60 62 58 55 58 59 49 50 63 49 35 34 39 39
99 98 93 85 86 94 98 90 81 75 70 77 68 66 68 69 71 74 76 76 78 88 94 93 75 71 75 68 65 65 65 62 65 65 58 56 51 51 45 44 52 54 53
100 100 100 99 99 97 98 100 100 98 96 93 90 78 75 76 80 78 82 91 88 93 97 90 73 73 71 72 70 69 68 71 69 64 61 54 56 56 48 46 53 62 61
100 100 100 100 100 100 99 98 99 100 100 100 99 99 98 93 95 98 100 98 100 96 87 74 72 68 68 66 68 71 71 65 58 64 62 46 43 47 45 55 52 64 57
100 100 100 99 100 99 99 100 100 100 100 100 100 100 100 100 100 100 100 99 90 86 86 78 67 62 60 62 64 68 68 60 62 61 57 42 53 55 48 47 45 63 51
100 100 100 100 100 100 100 100 100 100 100 99 99 99 100 100 99 100 98 92 83 75 76 73 66 65 63 64 67 63 69 92 64 62 57 46 55 57 45 47 59 64 63
100 100 100 100 100 100 100 100 100 100 100 100 100 99 99 100 100 100 91 77 76 77 69 63 60 60 61 64 63 63 70 58 55 65 64 55 68 54 49 61 61 54 49

GFSMA_925_rhum_273.txt.gz
RH
74 76 75 78 77 78 61 68 71 58 59 65 76 71 74 81 81 87 86 88 89 91 94 92 87 85 83 81 86 85 95 88 88 94 96 92 88 81 90 82 81 83 82
70 70 74 79 78 74 65 73 72 62 63 72 72 70 82 83 87 88 91 85 90 93 90 86 83 81 81 84 96 90 87 98 96 94 86 82 82 84 82 85 84 83 82
70 67 72 81 77 80 62 71 65 64 71 72 69 80 85 79 93 94 91 92 97 90 87 85 82 80 89 90 88 85 97 94 91 88 86 86 86 87 85 84 83 83 82
66 67 66 74 72 71 67 68 67 65 68 74 70 72 89 91 88 93 90 95 95 92 84 81 80 86 91 87 84 97 96 94 87 86 87 87 87 86 85 84 84 83 83
62 63 63 68 68 72 67 67 68 66 67 70 77 83 87 96 92 89 90 97 96 88 84 82 91 91 90 84 88 92 94 91 90 89 88 87 86 85 85 84 84 83 83
64 62 64 68 67 69 70 69 71 71 69 72 79 82 84 89 99 100 100 100 93 89 84 88 88 81 84 80 91 94 93 92 91 90 87 86 85 84 84 83 84 83 83
66 61 64 67 68 70 71 73 73 74 71 70 73 72 78 89 93 100 100 98 94 91 89 83 80 80 83 77 90 94 94 92 91 88 86 84 83 83 83 83 84 83 84
66 61 64 67 67 72 75 77 76 74 71 70 70 67 76 69 76 95 99 96 96 93 87 80 81 83 74 81 98 94 91 92 90 87 85 83 82 83 82 83 84 85 83
68 61 63 66 64 73 77 79 78 72 72 68 66 55 84 79 69 74 96 97 89 84 86 82 83 82 72 87 95 94 88 90 90 87 85 82 82 83 80 82 84 84 83
69 62 62 64 63 72 76 78 78 73 70 67 61 49 42 53 76 81 71 94 90 87 89 91 88 83 74 76 90 90 84 87 88 86 86 83 82 80 80 81 82 85 84
70 62 58 60 61 67 76 76 78 74 69 66 62 57 57 50 52 71 89 73 91 87 85 84 90 87 81 72 82 84 82 80 87 86 88 83 80 78 79 80 85 84 84
65 59 55 56 57 59 72 74 74 74 68 64 58 50 52 51 54 56 78 79 83 88 83 81 85 82 79 71 77 76 78 80 84 86 88 85 68 58 48 78 85 84 81
61 55 52 53 55 56 62 70 71 71 66 61 57 50 50 46 43 46 57 75 80 74 84 80 78 81 76 72 75 74 70 68 66 84 88 87 60 40 28 42 83 79 78
61 53 50 49 53 56 59 66 68 67 64 60 56 52 47 49 45 44 48 66 86 84 75 67 77 78 78 76 76 73 60 57 57 80 89 90 59 41 32 28 40 54 72
63 57 53 54 54 56 60 63 68 67 64 61 58 52 51 48 48 50 44 45 65 93 90 74 66 65 71 72 71 68 61 54 56 74 86 73 55 40 32 30 30 35 54
78 68 59 74 61 53 59 66 72 70 69 64 61 58 54 51 50 50 48 43 41 51 80 71 76 66 66 69 69 67 62 56 55 62 66 63 49 40 32 33 34 30 38
91 84 85 89 70 55 59 68 73 73 72 70 68 64 59 56 56 55 52 47 44 49 63 79 73 70 68 71 70 69 66 61 56 58 60 57 48 42 36 36 35 26 30
98 100 98 84 77 62 58 63 71 75 73 73 69 69 66 60 59 57 56 51 48 50 56 76 77 78 74 73 73 70 66 70 61 62 68 63 55 50 43 38 33 28 28
94 97 98 96 90 75 64 59 60 68 72 70 70 71 69 66 65 62 60 59 56 53 58 62 78 80 78 75 73 70 74 65 62 63 65 72 61 58 45 39 40 33 27
94 95 97 98 90 80 70 66 62 61 62 68 67 68 70 69 68 68 66 64 61 61 64 61 70 79 79 76 72 84 69 66 62 59 62 60 59 57 74 62 59 40 35
100 95 93 93 88 87 80 72 66 65 65 65 67 69 70 71 70 68 72 71 68 69 69 68 74 81 84 89 89 77 72 62 58 57 59 60 56 48 50 56 50 46 46
98 100 100 98 93 99 98 91 88 79 74 73 68 72 75 77 74 73 74 74 73 74 76 85 93 93 92 92 87 75 68 67 68 61 64 62 60 54 46 49 45 48 65
100 100 100 100 99 99 99 99 100 100 99 98 94 94 94 88 83 81 85 90 83 84 88 88 96 93 88 84 77 72 68 67 67 65 67 64 59 50 50 47 50 54 66
100 100 100 100 100 100 99 99 99 98 100 100 99 100 100 100 98 91 90 96 97 100 100 99 100 94 81 72 69 66 70 69 67 64 62 49 44 46 48 47 47 46 56
100 100 100 100 100 100 100 100 100 100 100 100 100 99 99 99 99 100 100 100 100 100 100 96 88 84 75 68 65 70 73 69 70 66 61 49 47 51 45 40 40 67 65
100 100 100 100 100 100 100 100 100 100 100 100 100 99 100 100 100 100 99 99 99 94 90 90 84 79 74 69 71 68 68 72 74 77 62 52 52 50 39 54 58 60 60